,,,PA_Meas_PMT16A,,PR_Meas_QMR101_102,,RH_Meas_QMH101,,SR_Meas_QMS101,,TA_Meas_QMH101,,GenWind,,GenWind,
date,time,status,PA,status,PR,status,RH,status,SR,status,TA,status,DirAvg,status,SpdAvg,
2012-06-01, 00:00:04,VALID,998.392,VALID,0,VALID,69.6127,VALID,0,VALID,26.8833,VALID,197,VALID,0.464844,
2012-06-01, 00:01:04,VALID,998.38,VALID,0,VALID,70.6121,VALID,0,VALID,26.8618,VALID,314,VALID,0.792578,
2012-06-01, 00:02:04,VALID,998.371,VALID,0,VALID,70.7342,VALID,0,VALID,26.7661,VALID,313,VALID,0.496484,
2012-06-01, 00:03:04,VALID,998.336,VALID,0,VALID,70.3146,VALID,0,VALID,26.7035,VALID,237,VALID,0.5125,
2012-06-01, 00:04:04,VALID,998.373,VALID,0,VALID,71.3141,VALID,0,VALID,26.7251,VALID,25,VALID,0.759375,
2012-06-01, 00:05:04,VALID,998.371,VALID,0,VALID,70.6655,VALID,0,VALID,26.7055,VALID,189,VALID,1.40469,
2012-06-01, 00:06:04,VALID,998.34,VALID,0,VALID,70.0399,VALID,0,VALID,26.8032,VALID,136,VALID,0.623828,
2012-06-01, 00:07:04,VALID,998.314,VALID,0,VALID,70.3527,VALID,0.104696,VALID,26.8402,VALID,173,VALID,1.10859,
2012-06-01, 00:08:04,VALID,998.296,VALID,0,VALID,70.6884,VALID,0,VALID,26.9204,VALID,216,VALID,0.258203,
2012-06-01, 00:09:04,VALID,998.281,VALID,0,VALID,71.398,VALID,0,VALID,26.8988,VALID,220,VALID,0.495313,
2012-06-01, 00:10:04,VALID,998.29,VALID,0,VALID,71.5201,VALID,0,VALID,26.8618,VALID,279,VALID,0.450391,
2012-06-01, 00:11:04,VALID,998.275,VALID,0,VALID,72.3441,VALID,0,VALID,26.7641,VALID,279,VALID,0.597266,
2012-06-01, 00:12:04,VALID,998.312,VALID,0,VALID,71.2912,VALID,0,VALID,26.7035,VALID,267,VALID,0.803516,
2012-06-01, 00:13:04,VALID,998.301,VALID,0,VALID,72.0236,VALID,0,VALID,26.7446,VALID,237,VALID,0.719141,
2012-06-01, 00:14:04,VALID,998.312,VALID,0,VALID,70.8105,VALID,0,VALID,26.7836,VALID,244,VALID,1.24453,
2012-06-01, 00:15:04,VALID,998.292,VALID,0,VALID,70.5282,VALID,0,VALID,26.8402,VALID,262,VALID,1.08516,
2012-06-01, 00:16:04,VALID,998.291,VALID,0,VALID,70.3069,VALID,0.104696,VALID,26.8988,VALID,252,VALID,1.13789,
2012-06-01, 00:17:04,VALID,998.303,VALID,0,VALID,71.0623,VALID,0,VALID,26.9378,VALID,259,VALID,0.966016,
2012-06-01, 00:18:04,VALID,998.221,VALID,0,VALID,69.9865,VALID,0,VALID,27.0787,VALID,163,VALID,2.83555,
2012-06-01, 00:19:04,VALID,998.189,VALID,0,VALID,68.7352,VALID,0,VALID,27.4086,VALID,169,VALID,3.72383,
2012-06-01, 00:20:04,VALID,998.175,VALID,0,VALID,67.4077,VALID,0,VALID,27.6626,VALID,182,VALID,2.76875,
2012-06-01, 00:21:04,VALID,998.143,VALID,0,VALID,66.8431,VALID,0,VALID,27.8189,VALID,195,VALID,2.15078,
2012-06-01, 00:22:04,VALID,998.136,VALID,0,VALID,66.3167,VALID,0,VALID,27.9382,VALID,181,VALID,2.94102,
2012-06-01, 00:23:04,VALID,998.126,VALID,0,VALID,66.0649,VALID,0,VALID,28.0359,VALID,180,VALID,3.67734,
2012-06-01, 00:24:04,VALID,998.128,VALID,0,VALID,65.9275,VALID,0,VALID,28.0728,VALID,187,VALID,3.55664,
2012-06-01, 00:25:04,VALID,998.069,VALID,0,VALID,65.7215,VALID,0,VALID,28.114,VALID,211,VALID,3.42773,
2012-06-01, 00:26:04,VALID,998.086,VALID,0,VALID,65.2943,VALID,0,VALID,28.1727,VALID,196,VALID,4.38203,
2012-06-01, 00:27:04,VALID,998.096,VALID,0,VALID,65.3172,VALID,0,VALID,28.1922,VALID,180,VALID,4.54023,
2012-06-01, 00:28:04,VALID,998.069,VALID,0,VALID,65.7444,VALID,0,VALID,28.1531,VALID,172,VALID,3.30078,
2012-06-01, 00:29:04,VALID,998.089,VALID,0,VALID,66.042,VALID,0,VALID,28.0554,VALID,185,VALID,3.42227,
2012-06-01, 00:30:04,VALID,998.111,VALID,0,VALID,66.4082,VALID,0,VALID,27.9752,VALID,185,VALID,3.33711,
2012-06-01, 00:31:04,VALID,998.096,VALID,0,VALID,66.7134,VALID,0,VALID,27.9556,VALID,179,VALID,2.94961,
2012-06-01, 00:32:04,VALID,998.075,VALID,0,VALID,66.7592,VALID,0,VALID,27.9187,VALID,172,VALID,2.99414,
2012-06-01, 00:33:04,VALID,998.111,VALID,0,VALID,67.072,VALID,0,VALID,27.8558,VALID,184,VALID,2.85547,
2012-06-01, 00:34:04,VALID,998.086,VALID,0,VALID,67.2017,VALID,0.104696,VALID,27.8363,VALID,171,VALID,3.20469,
2012-06-01, 00:35:04,VALID,998.064,VALID,0,VALID,67.5832,VALID,0,VALID,27.7798,VALID,170,VALID,3.01367,
2012-06-01, 00:36:04,VALID,998.042,VALID,0,VALID,68.0028,VALID,0,VALID,27.641,VALID,172,VALID,3.1668,
2012-06-01, 00:37:04,VALID,998.067,VALID,0,VALID,68.3614,VALID,0,VALID,27.5649,VALID,169,VALID,3.175,
2012-06-01, 00:38:04,VALID,998.036,VALID,0,VALID,68.4301,VALID,0.104696,VALID,27.4652,VALID,169,VALID,3.41953,
2012-06-01, 00:39:04,VALID,998.04,VALID,0,VALID,68.7276,VALID,0,VALID,27.4456,VALID,169,VALID,2.99492,
2012-06-01, 00:40:04,VALID,998.021,VALID,0,VALID,69.2541,VALID,0,VALID,27.348,VALID,162,VALID,2.65703,
2012-06-01, 00:41:04,VALID,998.039,VALID,0,VALID,69.4219,VALID,0,VALID,27.2719,VALID,165,VALID,2.66211,
2012-06-01, 00:42:04,VALID,998.042,VALID,0,VALID,69.8873,VALID,0,VALID,27.2133,VALID,169,VALID,2.38594,
2012-06-01, 00:43:04,VALID,997.981,VALID,0,VALID,69.2312,VALID,0,VALID,27.1917,VALID,169,VALID,3.29609,
2012-06-01, 00:44:04,VALID,997.98,VALID,0,VALID,68.6971,VALID,0.104696,VALID,27.2698,VALID,169,VALID,4.37227,
2012-06-01, 00:45:04,VALID,997.997,VALID,0,VALID,68.0104,VALID,0,VALID,27.3696,VALID,171,VALID,3.68477,
2012-06-01, 00:46:04,VALID,998.042,VALID,0,VALID,67.9494,VALID,0,VALID,27.4672,VALID,175,VALID,3.11758,
2012-06-01, 00:47:04,VALID,998.073,VALID,0,VALID,67.5145,VALID,0,VALID,27.5063,VALID,175,VALID,3.79141,
2012-06-01, 00:48:04,VALID,998.065,VALID,0,VALID,66.9575,VALID,0,VALID,27.5628,VALID,181,VALID,3.49492,
2012-06-01, 00:49:04,VALID,998.091,VALID,0,VALID,66.9804,VALID,0.104696,VALID,27.6431,VALID,174,VALID,3.2707,
2012-06-01, 00:50:04,VALID,998.08,VALID,0,VALID,66.7515,VALID,0,VALID,27.6235,VALID,178,VALID,3.83203,
2012-06-01, 00:51:04,VALID,998.062,VALID,0,VALID,66.6981,VALID,0,VALID,27.6235,VALID,172,VALID,3.50234,
2012-06-01, 00:52:04,VALID,998.106,VALID,0,VALID,66.9575,VALID,0,VALID,27.6235,VALID,159,VALID,3.00938,
2012-06-01, 00:53:04,VALID,998.105,VALID,0,VALID,67.7205,VALID,0,VALID,27.4847,VALID,163,VALID,2.89766,
2012-06-01, 00:54:04,VALID,998.094,VALID,0,VALID,67.896,VALID,0,VALID,27.4086,VALID,161,VALID,3.66211,
2012-06-01, 00:55:04,VALID,998.115,VALID,0,VALID,68.0486,VALID,0,VALID,27.3696,VALID,159,VALID,3.40937,
2012-06-01, 00:56:04,VALID,998.111,VALID,0,VALID,68.1478,VALID,0,VALID,27.3696,VALID,157,VALID,4.05469,
2012-06-01, 00:57:04,VALID,998.094,VALID,0,VALID,68.2012,VALID,0,VALID,27.3305,VALID,160,VALID,3.16563,
2012-06-01, 00:58:04,VALID,998.073,VALID,0,VALID,68.308,VALID,0,VALID,27.2894,VALID,159,VALID,3.51328,
2012-06-01, 00:59:04,VALID,998.069,VALID,0,VALID,68.514,VALID,0,VALID,27.2719,VALID,162,VALID,3.37734,
2012-06-01, 01:00:04,VALID,998.096,VALID,0,VALID,68.4148,VALID,0,VALID,27.2719,VALID,168,VALID,3.60508,
2012-06-01, 01:01:04,VALID,998.096,VALID,0,VALID,68.3843,VALID,0,VALID,27.2719,VALID,172,VALID,3.71484,
2012-06-01, 01:02:04,VALID,998.081,VALID,0,VALID,68.0638,VALID,0,VALID,27.3305,VALID,171,VALID,3.82773,
2012-06-01, 01:03:04,VALID,998.081,VALID,0,VALID,67.9875,VALID,0,VALID,27.3696,VALID,172,VALID,3.90117,
2012-06-01, 01:04:04,VALID,998.067,VALID,0,VALID,68.0333,VALID,0,VALID,27.3696,VALID,169,VALID,3.59414,
2012-06-01, 01:05:04,VALID,998.079,VALID,0,VALID,68.0486,VALID,0,VALID,27.35,VALID,166,VALID,3.49102,
2012-06-01, 01:06:04,VALID,998.055,VALID,0,VALID,68.3004,VALID,0,VALID,27.2915,VALID,166,VALID,3.08555,
2012-06-01, 01:07:04,VALID,998.028,VALID,0,VALID,68.3461,VALID,0,VALID,27.2524,VALID,165,VALID,3.10508,
2012-06-01, 01:08:04,VALID,998.043,VALID,0,VALID,68.2851,VALID,0,VALID,27.2329,VALID,165,VALID,3.0543,
2012-06-01, 01:09:04,VALID,998.039,VALID,0,VALID,68.3156,VALID,0,VALID,27.2524,VALID,164,VALID,3.10664,
2012-06-01, 01:10:04,VALID,998.054,VALID,0,VALID,68.1859,VALID,0,VALID,27.2329,VALID,166,VALID,3.81797,
2012-06-01, 01:11:04,VALID,998.066,VALID,0,VALID,68.0791,VALID,0,VALID,27.2503,VALID,168,VALID,3.49648,
2012-06-01, 01:12:04,VALID,998.103,VALID,0,VALID,67.7663,VALID,0,VALID,27.311,VALID,168,VALID,3.34805,
2012-06-01, 01:13:04,VALID,998.097,VALID,0,VALID,67.3772,VALID,0,VALID,27.3891,VALID,174,VALID,3.29336,
2012-06-01, 01:14:04,VALID,998.115,VALID,0,VALID,67.2169,VALID,0,VALID,27.4672,VALID,172,VALID,3.34766,
2012-06-01, 01:15:04,VALID,998.123,VALID,0,VALID,67.133,VALID,0,VALID,27.4868,VALID,178,VALID,2.95156,
2012-06-01, 01:16:04,VALID,998.133,VALID,0,VALID,67.3161,VALID,0,VALID,27.4868,VALID,176,VALID,2.98555,
2012-06-01, 01:17:04,VALID,998.112,VALID,0,VALID,66.927,VALID,0,VALID,27.4672,VALID,182,VALID,3.29609,
2012-06-01, 01:18:04,VALID,998.126,VALID,0,VALID,66.8507,VALID,0,VALID,27.5258,VALID,182,VALID,3.00234,
2012-06-01, 01:19:04,VALID,998.152,VALID,0,VALID,67.0033,VALID,0,VALID,27.5454,VALID,187,VALID,2.25938,
2012-06-01, 01:20:04,VALID,998.131,VALID,0,VALID,67.1101,VALID,0,VALID,27.5454,VALID,182,VALID,2.54219,
2012-06-01, 01:21:04,VALID,998.091,VALID,0,VALID,66.8965,VALID,0,VALID,27.5238,VALID,180,VALID,2.51719,
2012-06-01, 01:22:04,VALID,998.1,VALID,0,VALID,66.8431,VALID,0,VALID,27.5454,VALID,194,VALID,2.46758,
2012-06-01, 01:23:04,VALID,998.116,VALID,0,VALID,66.8126,VALID,0,VALID,27.5649,VALID,194,VALID,2.6043,
2012-06-01, 01:24:04,VALID,998.096,VALID,0,VALID,66.3167,VALID,0,VALID,27.6431,VALID,201,VALID,2.96797,
2012-06-01, 01:25:04,VALID,998.109,VALID,0,VALID,66.3014,VALID,0,VALID,27.6626,VALID,196,VALID,2.49492,
2012-06-01, 01:26:04,VALID,998.084,VALID,0,VALID,66.1107,VALID,0,VALID,27.6821,VALID,200,VALID,3.07148,
2012-06-01, 01:27:04,VALID,998.089,VALID,0,VALID,66.1259,VALID,0,VALID,27.6821,VALID,201,VALID,2.3668,
2012-06-01, 01:28:04,VALID,998.076,VALID,0,VALID,65.8818,VALID,0,VALID,27.7191,VALID,202,VALID,2.57695,
2012-06-01, 01:29:04,VALID,998.088,VALID,0,VALID,65.8512,VALID,0,VALID,27.7798,VALID,204,VALID,1.76211,
2012-06-01, 01:30:04,VALID,998.061,VALID,0,VALID,65.5995,VALID,0,VALID,27.7777,VALID,210,VALID,2.24805,
2012-06-01, 01:31:04,VALID,998.065,VALID,0,VALID,65.3248,VALID,0,VALID,27.8363,VALID,212,VALID,1.92539,
2012-06-01, 01:32:04,VALID,998.063,VALID,0,VALID,65.3782,VALID,0,VALID,27.8558,VALID,213,VALID,1.25234,
2012-06-01, 01:33:04,VALID,998.058,VALID,0,VALID,65.2104,VALID,0,VALID,27.8384,VALID,220,VALID,2.13711,
2012-06-01, 01:34:04,VALID,997.991,VALID,0,VALID,65.3172,VALID,0,VALID,27.8384,VALID,215,VALID,1.42578,
2012-06-01, 01:35:04,VALID,997.98,VALID,0,VALID,65.2027,VALID,0,VALID,27.8168,VALID,213,VALID,2.17695,
2012-06-01, 01:36:04,VALID,997.962,VALID,0,VALID,65.4698,VALID,0,VALID,27.8579,VALID,203,VALID,2.38633,
2012-06-01, 01:37:04,VALID,997.931,VALID,0,VALID,65.4774,VALID,0,VALID,27.8579,VALID,196,VALID,2.28125,
2012-06-01, 01:38:04,VALID,997.91,VALID,0,VALID,65.2256,VALID,0,VALID,27.8363,VALID,200,VALID,2.40742,
2012-06-01, 01:39:04,VALID,997.919,VALID,0,VALID,65.3782,VALID,0,VALID,27.8579,VALID,209,VALID,1.93828,
2012-06-01, 01:40:04,VALID,997.905,VALID,0,VALID,65.5384,VALID,0,VALID,27.8384,VALID,204,VALID,2.08008,
2012-06-01, 01:41:04,VALID,997.887,VALID,0,VALID,65.4087,VALID,0,VALID,27.7798,VALID,218,VALID,1.75898,
2012-06-01, 01:42:04,VALID,997.867,VALID,0,VALID,65.5232,VALID,0,VALID,27.7582,VALID,194,VALID,2.09297,
2012-06-01, 01:43:04,VALID,997.882,VALID,0,VALID,65.8512,VALID,0,VALID,27.7582,VALID,204,VALID,1.46055,
2012-06-01, 01:44:04,VALID,997.874,VALID,0,VALID,65.8284,VALID,0,VALID,27.7582,VALID,197,VALID,2.35078,
2012-06-01, 01:45:04,VALID,997.84,VALID,0,VALID,65.7597,VALID,0,VALID,27.7407,VALID,201,VALID,2.3082,
2012-06-01, 01:46:04,VALID,997.865,VALID,0,VALID,65.7673,VALID,0,VALID,27.7212,VALID,197,VALID,2.55742,
2012-06-01, 01:47:04,VALID,997.863,VALID,0,VALID,66.2098,VALID,0,VALID,27.7212,VALID,202,VALID,1.99648,
2012-06-01, 01:48:04,VALID,997.843,VALID,0,VALID,65.9657,VALID,0,VALID,27.6605,VALID,199,VALID,2.46992,
2012-06-01, 01:49:04,VALID,997.847,VALID,0,VALID,66.248,VALID,0,VALID,27.6626,VALID,195,VALID,2.35078,
2012-06-01, 01:50:04,VALID,997.858,VALID,0,VALID,66.3624,VALID,0,VALID,27.6431,VALID,189,VALID,2.13281,
2012-06-01, 01:51:04,VALID,997.846,VALID,0,VALID,67.1712,VALID,0,VALID,27.5845,VALID,176,VALID,2.01719,
2012-06-01, 01:52:04,VALID,997.839,VALID,0,VALID,67.1101,VALID,0,VALID,27.5063,VALID,192,VALID,1.7625,
2012-06-01, 01:53:04,VALID,997.828,VALID,0,VALID,66.9347,VALID,0,VALID,27.5258,VALID,193,VALID,2.4043,
2012-06-01, 01:54:04,VALID,997.804,VALID,0,VALID,66.9575,VALID,0,VALID,27.5433,VALID,190,VALID,1.7832,
2012-06-01, 01:55:04,VALID,997.769,VALID,0,VALID,67.1635,VALID,0,VALID,27.5258,VALID,184,VALID,2.18008,
2012-06-01, 01:56:04,VALID,997.791,VALID,0,VALID,67.0415,VALID,0,VALID,27.5454,VALID,191,VALID,2.53594,
2012-06-01, 01:57:04,VALID,997.745,VALID,0,VALID,67.0949,VALID,0,VALID,27.5649,VALID,186,VALID,2.27187,
2012-06-01, 01:58:04,VALID,997.758,VALID,0,VALID,67.4306,VALID,0,VALID,27.5063,VALID,188,VALID,1.53633,
2012-06-01, 01:59:04,VALID,997.745,VALID,0,VALID,67.4764,VALID,0,VALID,27.4868,VALID,194,VALID,2.3207,
2012-06-01, 02:00:04,VALID,997.75,VALID,0,VALID,67.278,VALID,0,VALID,27.4847,VALID,193,VALID,2.52539,
2012-06-01, 02:01:04,VALID,997.745,VALID,0,VALID,67.3924,VALID,0,VALID,27.5258,VALID,193,VALID,3.00273,
2012-06-01, 02:02:04,VALID,997.698,VALID,0,VALID,67.1941,VALID,0,VALID,27.5454,VALID,195,VALID,2.57227,
2012-06-01, 02:03:04,VALID,997.664,VALID,0,VALID,67.0491,VALID,0,VALID,27.5845,VALID,197,VALID,2.91641,
2012-06-01, 02:04:04,VALID,997.674,VALID,0,VALID,67.0262,VALID,0,VALID,27.6431,VALID,199,VALID,2.2375,
2012-06-01, 02:05:04,VALID,997.644,VALID,0,VALID,66.4921,VALID,0,VALID,27.7407,VALID,199,VALID,4.72734,
2012-06-01, 02:06:04,VALID,997.643,VALID,0,VALID,66.1183,VALID,0,VALID,27.8363,VALID,177,VALID,4.10156,
2012-06-01, 02:07:04,VALID,997.658,VALID,0,VALID,66.2556,VALID,0,VALID,27.7993,VALID,179,VALID,3.59258,
2012-06-01, 02:08:04,VALID,997.668,VALID,0,VALID,66.2175,VALID,0,VALID,27.7993,VALID,183,VALID,3.46914,
2012-06-01, 02:09:04,VALID,997.642,VALID,0,VALID,65.9962,VALID,0,VALID,27.7993,VALID,188,VALID,2.80312,
2012-06-01, 02:10:04,VALID,997.647,VALID,0,VALID,66.0573,VALID,0,VALID,27.8189,VALID,188,VALID,3.4957,
2012-06-01, 02:11:04,VALID,997.671,VALID,0,VALID,65.5766,VALID,0,VALID,27.9165,VALID,182,VALID,3.75625,
2012-06-01, 02:12:04,VALID,997.64,VALID,0,VALID,65.1951,VALID,0,VALID,27.934,VALID,187,VALID,3.72852,
2012-06-01, 02:13:04,VALID,997.671,VALID,0,VALID,64.9738,VALID,0,VALID,28.0728,VALID,201,VALID,3.73867,
2012-06-01, 02:14:04,VALID,997.689,VALID,0,VALID,64.8289,VALID,0,VALID,28.0924,VALID,211,VALID,3.70039,
2012-06-01, 02:15:04,VALID,997.672,VALID,0,VALID,64.867,VALID,0,VALID,28.0924,VALID,199,VALID,3.8043,
2012-06-01, 02:16:04,VALID,997.682,VALID,0,VALID,65.2333,VALID,0,VALID,28.0316,VALID,195,VALID,2.53789,
2012-06-01, 02:17:04,VALID,997.671,VALID,0,VALID,65.4621,VALID,0,VALID,27.9926,VALID,194,VALID,3.20664,
2012-06-01, 02:18:04,VALID,997.7,VALID,0,VALID,65.6987,VALID,0,VALID,27.934,VALID,180,VALID,2.58984,
2012-06-01, 02:19:04,VALID,997.711,VALID,0,VALID,66.1107,VALID,0,VALID,27.8363,VALID,186,VALID,3.0625,
2012-06-01, 02:20:04,VALID,997.681,VALID,0,VALID,66.103,VALID,0,VALID,27.8775,VALID,180,VALID,3.57305,
2012-06-01, 02:21:04,VALID,997.659,VALID,0,VALID,66.1488,VALID,0,VALID,27.8775,VALID,186,VALID,2.38516,
2012-06-01, 02:22:04,VALID,997.668,VALID,0,VALID,66.3701,VALID,0,VALID,27.8168,VALID,191,VALID,2.27617,
2012-06-01, 02:23:04,VALID,997.659,VALID,0,VALID,66.3853,VALID,0,VALID,27.8189,VALID,200,VALID,3.02539,
2012-06-01, 02:24:04,VALID,997.643,VALID,0,VALID,66.3701,VALID,0,VALID,27.7582,VALID,189,VALID,2.69922,
2012-06-01, 02:25:04,VALID,997.627,VALID,0,VALID,66.4235,VALID,0,VALID,27.7972,VALID,197,VALID,2.86484,
2012-06-01, 02:26:04,VALID,997.611,VALID,0,VALID,66.3853,VALID,0,VALID,27.7777,VALID,190,VALID,3.29492,
2012-06-01, 02:27:04,VALID,997.601,VALID,0,VALID,66.5227,VALID,0.104696,VALID,27.7777,VALID,197,VALID,2.86875,
2012-06-01, 02:28:04,VALID,997.622,VALID,0,VALID,66.7668,VALID,0,VALID,27.7191,VALID,188,VALID,2.46406,
2012-06-01, 02:29:04,VALID,997.59,VALID,0,VALID,66.8736,VALID,0.104696,VALID,27.7191,VALID,195,VALID,3.40313,
2012-06-01, 02:30:04,VALID,997.609,VALID,0,VALID,66.927,VALID,0,VALID,27.7017,VALID,194,VALID,3.11758,
2012-06-01, 02:31:04,VALID,997.609,VALID,0,VALID,66.6371,VALID,0,VALID,27.7191,VALID,200,VALID,3.54141,
2012-06-01, 02:32:04,VALID,997.618,VALID,0,VALID,66.7134,VALID,0,VALID,27.7777,VALID,203,VALID,2.55938,
2012-06-01, 02:33:04,VALID,997.57,VALID,0,VALID,66.1717,VALID,0,VALID,27.7993,VALID,196,VALID,4.24648,
2012-06-01, 02:34:04,VALID,997.614,VALID,0,VALID,66.2709,VALID,0,VALID,27.8168,VALID,204,VALID,3.18047,
2012-06-01, 02:35:04,VALID,997.623,VALID,0,VALID,66.2861,VALID,0,VALID,27.8189,VALID,196,VALID,3.51367,
2012-06-01, 02:36:04,VALID,997.647,VALID,0,VALID,66.1946,VALID,0,VALID,27.8384,VALID,195,VALID,3.00352,
2012-06-01, 02:37:04,VALID,997.694,VALID,0,VALID,66.3243,VALID,0,VALID,27.8189,VALID,190,VALID,3.51016,
2012-06-01, 02:38:04,VALID,997.688,VALID,0,VALID,66.1717,VALID,0,VALID,27.8168,VALID,187,VALID,3.48125,
2012-06-01, 02:39:04,VALID,997.698,VALID,0,VALID,66.1564,VALID,0.104696,VALID,27.8168,VALID,196,VALID,3.33906,
2012-06-01, 02:40:04,VALID,997.674,VALID,0,VALID,66.2633,VALID,0,VALID,27.8168,VALID,185,VALID,2.99766,
2012-06-01, 02:41:04,VALID,997.718,VALID,0,VALID,66.2175,VALID,0,VALID,27.7972,VALID,187,VALID,2.86055,
2012-06-01, 02:42:04,VALID,997.751,VALID,0,VALID,66.042,VALID,0,VALID,27.8363,VALID,195,VALID,2.71133,
2012-06-01, 02:43:04,VALID,997.735,VALID,0,VALID,65.6529,VALID,0,VALID,27.8754,VALID,194,VALID,4.01758,
2012-06-01, 02:44:04,VALID,997.759,VALID,0,VALID,65.6529,VALID,0,VALID,27.9144,VALID,194,VALID,4.40703,
2012-06-01, 02:45:04,VALID,997.745,VALID,0,VALID,65.485,VALID,0,VALID,27.934,VALID,193,VALID,3.01641,
2012-06-01, 02:46:04,VALID,997.756,VALID,0,VALID,65.6834,VALID,0,VALID,27.8949,VALID,189,VALID,3.02734,
2012-06-01, 02:47:04,VALID,997.733,VALID,0,VALID,65.6987,VALID,0,VALID,27.9144,VALID,192,VALID,3.45352,
2012-06-01, 02:48:04,VALID,997.717,VALID,0,VALID,65.485,VALID,0,VALID,27.9144,VALID,190,VALID,3.75156,
2012-06-01, 02:49:04,VALID,997.719,VALID,0,VALID,65.4011,VALID,0,VALID,27.9144,VALID,188,VALID,3.08672,
2012-06-01, 02:50:04,VALID,997.747,VALID,0,VALID,65.2638,VALID,0,VALID,27.9535,VALID,200,VALID,2.95195,
2012-06-01, 02:51:04,VALID,997.733,VALID,0,VALID,65.5461,VALID,0,VALID,27.9556,VALID,199,VALID,3.47734,
2012-06-01, 02:52:04,VALID,997.707,VALID,0,VALID,65.2104,VALID,0,VALID,27.9144,VALID,192,VALID,3.62383,
2012-06-01, 02:53:04,VALID,997.696,VALID,0,VALID,65.5232,VALID,0,VALID,27.934,VALID,187,VALID,2.63828,
2012-06-01, 02:54:04,VALID,997.683,VALID,0,VALID,65.2333,VALID,0,VALID,27.934,VALID,200,VALID,3.38789,
2012-06-01, 02:55:04,VALID,997.681,VALID,0,VALID,64.8594,VALID,0,VALID,27.9926,VALID,188,VALID,3.78984,
2012-06-01, 02:56:04,VALID,997.662,VALID,0,VALID,64.8518,VALID,0,VALID,27.9926,VALID,189,VALID,3.50234,
2012-06-01, 02:57:04,VALID,997.681,VALID,0,VALID,64.7907,VALID,0,VALID,28.0121,VALID,184,VALID,3.88906,
2012-06-01, 02:58:04,VALID,997.635,VALID,0,VALID,64.806,VALID,0,VALID,28.0316,VALID,176,VALID,3.89727,
2012-06-01, 02:59:04,VALID,997.691,VALID,0,VALID,64.9891,VALID,0,VALID,27.9926,VALID,180,VALID,3.3707,
2012-06-01, 03:00:04,VALID,997.697,VALID,0,VALID,65.157,VALID,0,VALID,27.9535,VALID,186,VALID,3.50625,
2012-06-01, 03:01:04,VALID,997.69,VALID,0,VALID,65.1722,VALID,0.104696,VALID,27.9752,VALID,184,VALID,3.55703,
2012-06-01, 03:02:04,VALID,997.661,VALID,0,VALID,64.867,VALID,0,VALID,27.973,VALID,175,VALID,5.65352,
2012-06-01, 03:03:04,VALID,997.734,VALID,0,VALID,64.5313,VALID,0,VALID,27.9926,VALID,190,VALID,3.83828,
2012-06-01, 03:04:04,VALID,997.722,VALID,0,VALID,64.4779,VALID,0,VALID,28.0512,VALID,180,VALID,4.90547,
2012-06-01, 03:05:04,VALID,997.729,VALID,0,VALID,64.3558,VALID,0,VALID,28.0512,VALID,187,VALID,4.54492,
2012-06-01, 03:06:04,VALID,997.784,VALID,0,VALID,64.4093,VALID,0,VALID,28.0924,VALID,204,VALID,3.95078,
2012-06-01, 03:07:04,VALID,997.836,VALID,0,VALID,64.5237,VALID,0,VALID,28.0707,VALID,196,VALID,2.98086,
2012-06-01, 03:08:04,VALID,997.791,VALID,0,VALID,64.0812,VALID,0,VALID,28.0707,VALID,199,VALID,3.68438,
2012-06-01, 03:09:04,VALID,997.759,VALID,0,VALID,63.8141,VALID,0,VALID,28.1489,VALID,189,VALID,3.925,
2012-06-01, 03:10:04,VALID,997.78,VALID,0,VALID,63.631,VALID,0.104696,VALID,28.1489,VALID,187,VALID,3.65273,
2012-06-01, 03:11:04,VALID,997.79,VALID,0,VALID,63.7531,VALID,0,VALID,28.1293,VALID,182,VALID,5.00898,
2012-06-01, 03:12:04,VALID,997.843,VALID,0,VALID,63.9515,VALID,0,VALID,28.1315,VALID,188,VALID,3.58711,
2012-06-01, 03:13:04,VALID,997.847,VALID,0,VALID,64.043,VALID,0,VALID,28.1293,VALID,186,VALID,3.06641,
2012-06-01, 03:14:04,VALID,997.859,VALID,0,VALID,63.9057,VALID,0,VALID,28.1098,VALID,196,VALID,4.36797,
2012-06-01, 03:15:04,VALID,997.848,VALID,0,VALID,63.776,VALID,0,VALID,28.1489,VALID,201,VALID,4.66563,
2012-06-01, 03:16:04,VALID,997.816,VALID,0,VALID,63.3411,VALID,0,VALID,28.1901,VALID,186,VALID,3.58789,
2012-06-01, 03:17:04,VALID,997.843,VALID,0,VALID,63.2419,VALID,0,VALID,28.2291,VALID,190,VALID,2.97266,
2012-06-01, 03:18:04,VALID,997.831,VALID,0,VALID,63.303,VALID,0,VALID,28.2487,VALID,198,VALID,3.0207,
2012-06-01, 03:19:04,VALID,997.857,VALID,0,VALID,63.4784,VALID,0,VALID,28.2096,VALID,197,VALID,2.70703,
2012-06-01, 03:20:04,VALID,997.875,VALID,0,VALID,63.6387,VALID,0,VALID,28.1293,VALID,194,VALID,3.18008,
2012-06-01, 03:21:04,VALID,997.895,VALID,0,VALID,63.8523,VALID,0,VALID,28.1293,VALID,187,VALID,2.5125,
2012-06-01, 03:22:04,VALID,997.922,VALID,0,VALID,64.188,VALID,0,VALID,28.0924,VALID,182,VALID,2.65313,
2012-06-01, 03:23:04,VALID,997.921,VALID,0,VALID,64.6534,VALID,0,VALID,28.0121,VALID,178,VALID,2.15859,
2012-06-01, 03:24:04,VALID,997.938,VALID,0,VALID,64.9662,VALID,0,VALID,27.934,VALID,176,VALID,2.83867,
2012-06-01, 03:25:04,VALID,997.928,VALID,0,VALID,65.6224,VALID,0,VALID,27.8558,VALID,164,VALID,2.50664,
2012-06-01, 03:26:04,VALID,997.948,VALID,0,VALID,66.5532,VALID,0,VALID,27.68,VALID,163,VALID,1.96211,
2012-06-01, 03:27:04,VALID,997.979,VALID,0,VALID,67.5298,VALID,0,VALID,27.4456,VALID,169,VALID,2.21797,
2012-06-01, 03:28:04,VALID,997.953,VALID,0,VALID,68.3614,VALID,0,VALID,27.2894,VALID,163,VALID,2.06484,
2012-06-01, 03:29:04,VALID,998.01,VALID,0,VALID,68.8878,VALID,0,VALID,27.1938,VALID,162,VALID,1.81406,
2012-06-01, 03:30:04,VALID,997.997,VALID,0,VALID,69.1244,VALID,0,VALID,27.0745,VALID,178,VALID,1.49883,
2012-06-01, 03:31:04,VALID,998.022,VALID,0,VALID,69.1015,VALID,0,VALID,27.0571,VALID,177,VALID,1.52969,
2012-06-01, 03:32:04,VALID,998.019,VALID,0,VALID,68.7505,VALID,0,VALID,27.1157,VALID,178,VALID,1.94805,
2012-06-01, 03:33:04,VALID,998.006,VALID,0,VALID,68.7124,VALID,0,VALID,27.1547,VALID,176,VALID,1.71836,
2012-06-01, 03:34:04,VALID,998.01,VALID,0,VALID,68.575,VALID,0,VALID,27.1722,VALID,189,VALID,1.2707,
2012-06-01, 03:35:04,VALID,997.984,VALID,0,VALID,68.4606,VALID,0,VALID,27.1938,VALID,198,VALID,1.01953,
2012-06-01, 03:36:04,VALID,998.002,VALID,0,VALID,68.369,VALID,0,VALID,27.2133,VALID,200,VALID,1.52031,
2012-06-01, 03:37:04,VALID,997.999,VALID,0,VALID,68.3538,VALID,0,VALID,27.1938,VALID,212,VALID,0.757422,
2012-06-01, 03:38:04,VALID,997.982,VALID,0,VALID,68.2164,VALID,0,VALID,27.1938,VALID,246,VALID,1.19453,
2012-06-01, 03:39:04,VALID,997.967,VALID,0,VALID,68.102,VALID,0,VALID,27.1917,VALID,234,VALID,0.951563,
2012-06-01, 03:40:04,VALID,997.958,VALID,0,VALID,68.1172,VALID,0,VALID,27.2329,VALID,212,VALID,1.06016,
2012-06-01, 03:41:04,VALID,997.988,VALID,0,VALID,68.102,VALID,0,VALID,27.2133,VALID,231,VALID,1.27773,
2012-06-01, 03:42:04,VALID,997.991,VALID,0,VALID,67.957,VALID,0,VALID,27.2915,VALID,205,VALID,1.74492,
2012-06-01, 03:43:04,VALID,997.988,VALID,0,VALID,67.6366,VALID,0,VALID,27.3696,VALID,224,VALID,1.30625,
2012-06-01, 03:44:04,VALID,998.033,VALID,0,VALID,67.5069,VALID,0,VALID,27.35,VALID,222,VALID,1.68828,
2012-06-01, 03:45:04,VALID,998.036,VALID,0,VALID,67.4458,VALID,0,VALID,27.3696,VALID,228,VALID,1.49531,